Wind_Gust
5 2 2 3 4 3 5 9 10 10 5 7 6 6 9 2 5 8 7 8 6 5 2 4 1 4 6 7 12 17 15 9 5 17 12 8 8 12 14 19 17 16 18 15 13 15 16 18 19 17 16 18 17 18 18 20 20 20 21 21 23 22 23 23 24 23 23 23 24 23 24 23 23 22 21 21 21 21 21 23 23 22 20 19 19 19 20 21 21 20 20 19 19 19 20 20 21
2 2 2 1 3 4 6 6 10 3 8 4 14 5 8 3 1 6 6 7 5 6 7 9 11 13 18 21 17 7 15 14 6 10 10 12 13 11 12 16 16 18 16 15 13 15 14 17 19 18 17 19 18 18 19 19 19 19 20 21 23 23 22 23 23 23 23 23 23 23 23 22 22 21 19 19 19 19 19 20 22 21 20 18 19 20 20 21 21 21 20 19 19 19 19 20 21
2 1 7 3 7 7 6 8 7 3 5 5 17 14 5 5 8 3 6 10 8 6 1 3 2 7 4 5 15 8 3 6 14 11 16 13 17 9 11 13 14 17 18 16 15 15 15 17 19 19 18 18 17 18 18 19 19 20 20 20 21 23 23 22 23 23 22 21 22 21 21 21 21 20 20 19 18 17 16 16 20 19 19 18 17 18 19 19 19 20 20 20 18 19 19 19 19
2 2 7 6 7 9 8 7 8 14 8 13 12 11 8 8 5 3 7 8 2 3 8 13 14 9 6 19 8 4 10 7 4 12 24 17 9 12 12 14 16 17 16 15 14 13 13 20 19 19 18 16 16 17 18 19 18 19 19 20 20 22 22 21 22 22 21 21 21 20 20 20 19 19 20 19 16 14 14 15 16 16 15 17 19 18 18 19 19 18 19 18 18 18 18 18 18
2 1 4 6 13 5 9 6 9 7 7 15 9 9 7 6 6 2 3 11 5 3 3 5 9 10 9 10 3 9 4 9 11 7 13 9 11 12 14 14 16 19 16 14 14 13 14 22 20 18 17 16 16 17 17 17 17 18 19 19 19 20 20 20 20 20 21 21 20 19 19 19 20 19 19 18 15 13 13 13 14 12 12 18 19 17 16 16 16 16 17 17 17 17 17 17 16
5 4 5 4 6 7 15 5 3 6 14 7 4 11 7 8 6 5 6 7 9 9 6 4 6 4 13 9 9 9 3 8 8 9 10 10 13 13 13 12 15 17 15 14 13 11 15 20 19 18 18 19 16 16 17 18 18 18 18 18 18 18 18 18 18 19 20 20 19 19 19 19 19 19 18 17 16 15 15 14 14 13 15 18 19 18 16 15 15 16 16 17 17 16 16 16 14
7 8 9 7 6 12 10 6 7 11 12 7 8 12 13 15 10 6 9 7 2 7 3 5 10 10 13 6 9 11 6 3 10 10 7 17 13 13 14 17 18 17 15 13 12 13 15 17 18 17 19 20 19 18 17 17 19 18 18 18 18 18 17 17 16 17 19 19 19 18 19 19 19 18 17 16 16 16 16 14 15 15 17 18 18 18 18 16 15 16 17 18 17 17 16 14 14
2 6 6 9 6 3 3 3 8 10 8 6 5 7 15 12 13 9 10 3 7 3 3 8 8 13 5 6 10 10 14 11 16 17 18 16 15 14 15 15 18 16 14 13 12 12 18 16 16 14 18 19 20 19 17 17 17 18 18 17 17 17 17 17 17 15 15 16 18 18 18 18 17 17 16 16 16 15 15 16 16 16 17 18 18 17 17 15 14 16 18 18 17 17 15 15 13
6 10 2 11 4 7 4 7 11 6 11 8 14 11 14 15 13 9 15 6 2 3 7 7 9 10 8 12 10 7 13 11 17 17 18 16 14 14 14 13 21 19 16 15 13 12 12 15 15 11 13 17 17 17 17 18 16 15 17 18 17 16 16 16 16 15 15 15 16 17 17 16 16 15 15 16 16 15 16 17 17 17 17 17 17 16 16 15 14 16 16 17 17 17 16 14 13
5 5 6 9 10 5 3 12 3 8 9 8 6 16 15 12 10 7 12 6 7 8 3 4 8 14 14 15 10 7 13 11 17 18 14 13 12 12 13 12 15 18 15 14 13 13 13 17 14 16 9 13 14 12 12 13 14 15 16 16 14 16 16 16 15 15 14 15 15 16 16 16 15 15 15 16 16 15 16 16 16 16 16 16 15 15 14 14 13 15 15 15 16 16 15 14 14
7 11 6 9 4 5 9 10 6 10 5 8 13 15 17 11 9 12 8 4 9 12 7 15 16 17 9 7 7 8 13 12 16 18 15 13 13 14 13 13 15 16 18 15 14 14 16 15 19 14 17 18 13 9 13 13 13 13 13 13 13 15 15 15 16 16 16 16 17 16 16 16 16 15 15 15 16 15 15 15 15 15 14 13 13 12 12 13 13 15 14 14 13 13 13 13 13
5 5 5 7 7 13 10 8 4 12 10 5 8 8 4 9 4 5 4 9 7 15 12 5 20 21 11 9 10 13 12 11 14 13 12 12 13 12 13 13 15 14 15 14 12 12 16 15 16 19 21 21 14 11 10 12 12 12 14 14 14 14 14 14 14 16 16 16 16 16 16 15 16 14 13 14 14 14 14 14 14 13 13 13 12 12 12 12 13 13 12 12 12 11 11 12 12
9 4 8 8 7 3 3 2 6 4 9 7 5 14 9 11 8 4 2 8 9 11 6 4 24 6 11 6 10 12 14 12 11 11 11 12 12 12 12 13 13 13 13 13 15 14 13 15 17 18 21 26 20 15 15 12 12 13 13 13 13 13 14 15 15 16 16 16 16 15 15 15 15 14 14 13 13 13 14 14 13 13 13 12 12 11 11 10 11 11 11 11 11 10 10 10 11
12 13 12 9 3 4 4 3 2 3 8 7 5 10 11 7 5 3 8 12 6 4 3 17 14 11 12 13 14 15 15 14 13 11 10 11 12 13 12 11 10 11 10 13 16 15 13 12 14 15 21 18 12 14 13 14 12 11 11 12 12 13 13 14 14 14 15 15 15 15 15 15 15 14 13 12 11 10 10 12 12 12 12 11 11 11 10 9 9 9 9 9 9 9 9 9 10
3 6 9 7 4 2 5 7 5 7 8 4 8 12 17 7 6 6 10 10 9 5 12 6 12 4 17 18 13 17 20 17 13 14 14 12 10 11 13 11 9 7 7 8 11 14 14 15 17 17 17 17 15 11 9 12 14 14 13 12 15 13 14 15 14 13 16 14 15 14 14 15 14 15 13 12 10 9 10 10 9 10 10 10 10 10 9 8 7 7 8 8 7 8 8 9 9
8 9 7 6 7 5 8 5 2 3 11 3 6 7 9 5 8 6 8 5 12 5 5 10 9 4 7 12 7 21 22 17 13 16 16 14 11 9 12 11 9 6 5 6 8 6 7 10 10 13 16 15 15 12 11 9 13 14 14 15 15 15 14 14 15 13 14 13 14 12 11 11 12 12 15 12 12 9 8 6 8 9 10 10 9 9 8 7 6 5 6 6 6 6 8 8 9
4 10 5 6 8 5 7 7 8 8 11 9 7 11 11 12 4 7 6 12 14 5 7 10 9 6 9 6 22 25 20 19 15 17 16 14 13 9 8 8 9 7 6 5 5 8 9 12 12 11 10 15 16 15 14 12 12 16 13 15 15 14 13 14 14 14 12 12 11 12 10 8 6 6 8 6 11 7 7 8 9 10 10 10 9 8 7 6 6 4 4 4 6 6 8 11 11
4 8 9 5 9 6 10 8 13 3 4 8 11 5 6 10 10 6 7 13 10 10 14 10 16 14 15 18 24 24 20 21 18 21 18 17 14 13 11 10 9 13 11 9 3 4 9 9 12 11 10 10 12 14 12 12 11 13 10 11 11 13 12 11 11 8 10 6 12 10 7 8 6 5 6 9 5 6 8 8 9 9 9 10 8 7 6 5 4 4 4 5 7 9 10 8 8
8 7 7 15 9 12 10 6 9 3 9 6 8 4 2 7 3 5 7 2 4 10 11 11 18 18 20 20 22 23 23 22 19 19 20 20 19 18 17 13 11 12 14 9 7 6 4 9 9 11 9 9 10 10 10 11 12 10 11 10 11 11 12 10 9 9 8 8 8 8 7 6 6 5 4 7 5 7 6 8 8 9 8 9 7 6 6 4 4 4 4 6 9 10 8 7 7
6 10 10 11 11 6 6 4 7 6 6 12 11 6 5 10 5 3 5 8 5 11 13 11 16 22 22 21 21 22 22 21 19 19 19 18 17 19 18 16 13 12 12 10 10 7 6 7 8 8 9 9 10 9 10 8 9 10 10 9 9 9 9 9 8 8 8 8 8 7 7 6 5 4 9 11 9 5 4 4 5 8 8 8 6 5 5 4 5 6 7 9 7 6 6 6 6
6 6 11 7 7 5 8 12 14 10 2 7 7 6 13 10 3 3 10 9 3 5 11 15 21 22 22 24 23 24 24 22 20 19 17 15 11 10 12 12 13 13 12 9 8 11 8 8 8 7 6 8 9 12 11 10 10 11 10 9 9 8 8 8 8 7 7 8 7 7 6 5 5 5 5 6 7 6 5 5 4 3 3 2 6 6 5 6 6 6 7 7 6 6 6 6 6
7 11 6 7 2 5 13 10 7 3 5 3 6 7 11 4 2 4 4 1 4 13 10 10 24 26 28 25 22 22 22 21 21 20 18 18 18 16 11 9 7 7 9 11 10 12 9 8 7 6 9 10 10 10 9 12 11 9 10 10 9 7 8 8 7 7 7 7 6 7 7 7 7 6 5 5 6 6 7 6 2 4 5 5 5 6 5 5 6 6 6 6 6 5 5 5 3
9 8 5 8 7 7 6 3 7 7 4 4 7 3 5 4 8 3 5 4 6 6 5 18 25 27 22 25 23 19 20 24 23 22 20 17 15 14 16 14 16 16 12 11 10 8 10 9 8 8 9 9 11 12 10 10 8 7 8 8 10 7 6 8 8 7 7 7 6 6 8 7 7 6 5 3 4 5 6 5 5 7 5 5 5 5 5 5 5 6 6 5 5 6 6 5 4
6 14 2 8 5 9 9 10 8 3 6 12 9 4 9 8 11 2 2 6 7 5 13 23 25 23 20 23 22 25 21 20 20 20 19 20 20 20 19 19 14 9 11 10 8 8 10 11 9 10 8 10 8 12 9 10 7 8 9 11 7 11 9 8 7 7 7 7 6 6 7 6 7 6 5 4 3 5 5 4 7 4 6 5 7 7 4 4 4 5 4 4 4 5 6 5 5
6 9 5 8 2 9 9 9 10 6 10 9 4 8 16 10 9 2 3 4 4 11 16 22 26 22 19 19 21 20 19 18 18 16 13 13 11 9 9 9 11 12 14 10 9 10 10 10 9 8 7 9 9 9 10 10 8 6 7 8 8 11 6 7 7 7 7 6 5 6 7 7 6 6 7 4 4 5 5 6 7 6 5 5 7 7 8 4 3 4 4 4 5 4 4 6 6
10 13 2 5 7 9 9 8 11 9 8 5 4 11 14 13 4 2 5 4 9 13 18 23 22 19 18 20 20 22 21 20 18 18 20 15 12 15 15 16 15 16 13 11 12 9 10 9 10 10 7 9 9 9 9 10 8 8 8 7 7 9 6 6 5 6 6 7 6 6 5 7 8 9 6 5 5 5 5 6 7 6 6 6 6 7 7 4 4 4 4 4 5 4 4 5 5
6 5 5 7 12 7 8 5 7 2 8 6 10 7 11 4 12 8 2 11 15 17 20 21 20 18 17 19 18 18 21 21 21 18 14 14 15 18 17 15 16 13 12 12 11 10 10 10 10 9 7 7 8 9 8 8 8 7 7 6 6 8 8 9 5 5 5 6 6 7 7 6 6 6 5 6 5 6 5 6 6 6 6 8 8 7 6 6 4 4 4 4 4 3 3 4 5
5 5 2 7 7 6 11 4 14 2 9 11 10 11 3 3 3 10 12 14 15 23 20 21 16 18 17 18 17 12 13 12 14 15 21 21 23 19 18 20 16 11 11 11 10 10 11 10 12 8 6 6 8 8 8 8 7 8 9 7 7 7 8 7 7 6 8 6 6 8 7 6 7 7 6 5 6 5 5 6 4 5 5 6 7 8 7 5 4 4 4 4 4 3 3 4 4
3 2 5 8 11 11 4 7 4 7 8 9 10 3 5 3 6 4 16 16 14 18 22 19 14 15 15 16 13 12 14 13 13 12 16 20 25 27 26 23 18 18 13 15 12 12 12 10 11 8 8 6 7 8 8 7 8 9 9 6 7 8 7 8 7 7 6 6 7 9 6 7 7 5 4 7 8 6 4 6 4 4 6 7 7 7 6 5 4 3 3 4 4 5 4 4 4
1 4 2 8 11 10 7 2 1 6 7 9 10 13 12 12 10 5 20 20 15 18 20 20 16 13 15 13 13 11 9 10 11 15 23 19 18 18 24 26 20 19 14 10 11 13 9 9 8 8 8 9 8 8 9 8 7 8 8 7 8 7 8 8 8 7 7 7 8 9 6 7 6 3 5 6 6 5 4 4 5 4 4 6 8 7 6 5 4 4 4 5 6 5 3 3 3
5 4 8 3 6 8 7 3 1 3 7 13 3 14 14 9 7 9 17 21 24 21 20 20 19 17 15 13 13 12 8 7 10 15 18 23 13 12 17 15 18 20 16 10 11 11 9 8 11 9 10 9 9 8 8 8 7 10 8 8 8 7 6 6 6 6 6 6 7 9 6 5 6 5 3 5 5 4 4 3 4 4 5 6 7 6 5 4 3 4 5 4 4 4 4 4 5
4 3 5 8 2 12 16 9 7 7 6 2 7 8 16 9 10 14 17 14 14 20 20 20 19 20 17 13 13 13 10 9 10 11 13 12 9 13 17 18 17 16 17 14 12 8 8 7 10 10 10 10 9 9 8 8 7 9 9 9 8 7 6 5 5 5 5 6 6 6 6 5 6 6 4 5 4 4 6 6 6 5 5 6 6 6 4 3 5 5 5 4 4 4 4 5 4
10 3 5 4 1 8 14 2 4 8 4 1 10 14 4 5 8 12 16 17 13 17 18 17 18 18 18 15 12 10 11 9 9 11 11 9 7 10 11 15 20 22 19 12 12 10 10 11 13 12 12 10 10 9 9 8 9 9 9 9 8 7 6 5 5 5 5 6 6 7 6 5 6 6 6 5 6 4 5 5 5 5 5 5 5 5 4 5 5 5 4 4 3 4 4 5 5
6 5 3 5 2 5 13 14 6 2 5 5 3 8 6 6 7 8 13 14 12 13 19 18 15 14 12 11 12 12 12 12 13 14 13 11 12 12 8 16 17 13 15 14 12 14 10 10 12 13 12 10 11 11 10 10 10 10 9 9 9 8 6 5 5 6 5 5 5 7 8 7 5 5 5 6 5 7 5 4 5 5 5 5 5 5 4 5 5 5 5 3 4 4 4 5 5
4 2 5 7 3 1 9 11 6 6 3 9 3 6 3 6 4 9 15 17 14 14 12 15 14 14 13 12 12 12 13 13 14 13 14 12 14 13 8 9 12 13 11 12 9 7 10 9 9 10 11 10 11 11 11 11 11 10 9 9 9 7 5 4 3 5 4 4 5 4 7 7 5 5 6 6 7 7 7 7 6 5 5 5 4 4 4 3 5 5 5 4 5 5 4 4 5
2 5 4 3 4 5 7 11 8 3 2 3 7 13 8 3 6 7 10 12 14 13 12 12 12 12 12 11 10 13 10 10 9 11 14 15 14 13 12 12 14 14 15 16 14 12 7 5 7 6 8 11 10 10 11 11 10 9 10 8 10 7 5 5 4 2 2 2 2 3 4 4 5 6 7 8 7 5 5 6 7 6 5 5 4 3 3 4 3 5 6 3 4 5 5 5 9
4 4 3 6 5 10 9 7 9 3 5 2 4 4 7 7 11 12 12 12 13 12 11 12 13 14 14 10 10 12 10 11 11 13 13 14 15 11 11 13 15 16 16 17 18 12 10 12 12 11 9 11 13 13 10 11 10 8 8 7 9 3 5 3 4 3 5 3 3 3 2 3 5 7 8 8 7 8 6 7 8 6 5 4 3 4 3 2 3 5 5 3 3 3 2 5 8
2 2 3 8 2 7 7 5 5 10 4 4 2 4 1 4 3 5 7 12 15 16 14 13 17 17 14 12 11 11 10 7 12 12 13 13 14 9 9 12 8 13 11 10 15 14 12 9 10 11 9 10 12 12 11 8 6 10 10 8 8 5 6 7 5 3 4 6 5 4 4 5 5 6 8 8 7 8 8 8 6 6 5 4 4 4 4 3 2 4 6 4 3 4 8 4 7
2 4 4 2 9 10 12 6 6 7 8 2 3 8 2 2 2 4 7 10 7 10 17 18 19 14 14 14 13 12 11 12 13 13 13 15 13 9 10 10 9 6 7 7 8 13 12 11 8 10 9 11 10 10 11 9 5 7 9 9 10 8 3 3 7 4 5 8 7 6 5 5 6 7 6 7 9 8 10 9 8 7 7 6 5 4 4 4 4 3 5 5 5 2 3 4 6
7 3 2 6 6 4 9 9 7 13 10 2 3 9 4 8 3 4 3 3 4 5 6 8 13 17 19 18 17 17 15 14 17 18 17 17 14 12 9 10 9 6 7 7 8 7 8 8 7 10 10 10 11 8 10 9 11 10 10 11 7 7 8 7 8 7 7 8 8 6 6 5 7 7 6 6 6 8 10 10 9 8 7 5 5 4 4 3 4 3 3 5 5 3 4 4 6
3 3 3 3 2 4 9 6 8 4 4 7 7 13 7 10 4 6 2 2 6 7 8 6 6 3 3 4 5 9 15 15 17 17 16 16 16 16 16 12 6 8 7 9 9 10 9 7 8 12 13 13 10 11 13 13 15 13 12 11 10 12 8 8 8 8 6 5 6 8 6 5 6 8 6 6 6 8 7 8 9 8 7 5 6 6 5 3 4 4 2 4 4 4 4 4 5
6 9 13 11 2 3 4 5 8 14 8 10 4 10 5 12 10 9 10 4 4 4 10 9 10 7 7 10 10 8 7 10 13 17 16 13 13 11 8 6 6 6 8 7 7 8 8 8 5 7 12 12 12 10 13 14 15 17 14 14 11 9 9 7 7 7 5 6 6 2 5 6 5 8 6 6 7 6 8 7 7 8 7 7 6 6 5 5 4 4 4 5 5 4 3 5 4
4 10 10 6 7 5 1 2 8 6 7 5 4 11 7 12 4 3 6 2 3 3 10 9 8 8 7 8 11 13 12 12 9 9 10 12 11 9 10 10 8 7 5 7 7 7 8 10 8 8 13 11 10 10 10 14 12 12 13 13 13 13 12 3 1 1 7 4 5 7 5 6 5 8 7 7 7 7 8 7 8 7 7 7 6 8 7 5 4 4 5 6 5 6 5 4 4
9 4 9 8 8 3 3 8 6 6 4 4 11 10 12 4 7 5 7 1 2 2 6 9 8 8 8 8 11 12 14 13 15 14 13 13 14 15 15 11 10 9 6 8 10 10 12 14 12 11 9 11 10 10 9 13 15 11 10 9 11 12 11 9 6 5 3 5 8 6 7 7 7 6 8 7 7 7 8 8 8 8 9 7 8 8 7 5 5 6 6 5 7 7 8 9 7
9 6 10 10 8 5 7 8 7 2 2 8 11 6 8 6 11 9 8 2 1 6 6 10 11 10 10 10 13 14 14 14 15 18 18 19 19 18 14 13 6 6 7 10 8 7 10 13 12 10 10 10 9 8 10 8 13 14 13 13 9 5 6 8 6 5 6 4 9 5 8 6 7 7 6 7 6 6 7 8 7 9 10 8 8 9 8 8 7 6 6 7 8 8 5 4 5
4 10 9 10 10 9 6 6 7 4 8 8 3 6 9 9 9 7 6 6 6 7 8 10 12 11 11 13 12 13 11 12 14 17 17 17 16 15 9 8 13 14 13 8 6 6 6 9 11 12 10 9 8 8 8 8 8 11 12 9 12 8 8 7 6 7 4 4 8 5 6 8 7 8 6 5 7 6 7 7 8 8 7 7 7 9 8 9 7 8 6 6 6 9 7 6 8
9 7 12 10 14 8 6 12 6 11 3 10 6 3 4 9 7 8 9 3 6 12 16 5 8 10 11 11 14 15 16 15 16 16 15 16 12 9 11 15 12 9 11 12 7 7 6 6 9 10 7 8 7 9 9 10 8 9 12 11 12 12 8 10 9 5 5 4 9 5 7 7 6 8 7 7 6 5 6 6 8 7 7 7 8 8 7 8 6 8 7 8 8 9 9 9 10
6 5 7 9 7 12 10 10 11 9 9 10 4 2 3 11 9 8 10 9 7 11 15 17 2 11 17 14 14 14 13 13 13 13 14 12 9 9 11 13 12 12 12 11 10 8 7 6 6 7 7 8 9 10 10 9 9 7 8 11 13 13 14 13 12 11 8 9 8 7 4 8 6 8 7 7 5 5 7 9 7 8 8 8 8 7 7 7 6 6 8 8 9 7 6 9 9
10 10 14 12 7 9 8 11 8 7 12 3 3 2 4 8 10 3 8 8 10 8 13 14 10 11 10 10 12 12 12 11 13 16 15 14 15 14 15 11 12 24 8 11 3 10 13 10 4 8 7 9 11 8 8 7 7 8 11 11 10 12 13 12 12 10 7 10 9 8 6 8 6 9 6 8 3 3 5 8 6 7 7 6 6 6 5 5 6 7 8 8 8 7 6 8 11
8 9 10 11 7 6 7 7 7 9 11 7 3 3 7 10 9 3 5 9 8 9 7 7 10 8 6 6 12 14 13 14 14 14 15 16 24 22 16 18 20 14 13 10 6 13 13 10 2 10 15 9 7 7 6 7 7 8 9 11 11 12 11 11 10 12 8 7 8 8 8 9 9 7 7 6 3 2 4 4 6 7 5 5 5 5 5 4 6 8 7 9 8 6 8 10 10
13 6 17 14 17 17 10 12 12 13 12 5 5 4 12 5 5 5 7 7 7 5 4 5 9 9 9 9 11 12 11 13 16 19 18 19 24 22 22 19 13 15 13 13 11 14 11 8 8 15 14 9 9 9 8 10 9 7 7 7 9 9 12 10 9 9 11 9 5 8 5 6 8 5 7 3 3 5 5 6 5 7 6 5 6 6 6 6 6 8 8 8 7 6 9 10 8
3 6 11 14 13 14 6 11 8 6 6 5 6 11 4 7 3 6 4 5 6 5 8 14 15 15 16 18 16 13 12 13 14 16 18 17 14 16 22 21 18 17 19 13 10 12 14 13 22 21 12 9 11 13 13 14 11 8 7 9 9 7 7 7 8 7 7 8 7 9 7 6 5 6 2 4 3 5 5 6 6 6 5 3 3 5 5 6 6 9 7 8 8 4 11 10 8
9 6 9 9 6 19 14 4 3 6 9 9 4 8 7 12 5 3 6 7 6 5 6 13 15 16 19 18 15 14 12 9 10 11 14 17 17 14 10 13 12 13 10 10 11 12 19 21 25 18 11 13 13 9 13 14 11 10 7 6 7 8 9 10 10 8 8 7 7 7 8 6 5 4 4 3 5 4 5 5 7 6 5 3 4 3 4 4 4 6 8 8 8 6 9 9 8
16 7 11 5 4 11 16 10 6 8 8 13 3 5 5 6 11 7 4 5 3 4 5 7 8 14 19 16 17 12 11 14 13 13 11 11 12 15 13 13 17 16 14 14 11 10 9 14 22 21 25 22 15 13 9 8 9 7 7 7 5 7 9 8 9 10 9 9 6 6 6 7 5 5 6 3 4 4 3 5 5 5 5 3 3 3 3 4 4 6 5 7 6 7 9 6 6
10 9 9 9 6 6 7 16 5 6 7 8 4 2 7 8 8 5 4 5 1 1 4 7 9 9 7 7 12 15 11 18 13 14 16 13 9 8 14 16 17 13 12 7 9 11 15 18 19 19 19 16 12 7 5 5 8 9 10 10 9 7 6 6 6 8 8 9 9 8 8 7 6 5 6 5 5 5 5 4 4 3 3 3 3 3 3 4 3 5 3 6 4 6 9 7 3
6 8 8 3 10 4 10 13 11 16 6 4 9 4 10 15 11 6 6 7 5 2 4 6 6 6 7 8 11 10 8 12 14 9 8 11 8 6 7 10 10 9 8 9 10 12 17 20 20 20 18 10 8 5 6 7 5 8 10 9 8 7 6 6 6 9 9 8 8 9 7 6 8 7 5 5 5 5 5 5 3 3 2 1 2 2 4 5 4 4 5 5 3 5 6 6 3
5 12 8 7 8 5 11 7 4 8 16 10 9 7 14 12 12 7 8 9 11 9 7 6 7 8 10 12 14 11 9 8 7 7 8 11 9 8 6 4 5 5 8 11 10 11 16 19 19 20 23 19 14 7 4 4 7 8 10 11 11 9 7 7 6 3 6 6 6 6 6 3 5 4 4 4 5 5 4 4 3 3 3 3 2 1 1 4 4 4 2 3 5 5 7 3 5
10 11 6 12 8 7 6 6 3 5 11 12 11 15 15 15 5 8 8 7 9 8 7 10 7 9 11 9 8 12 11 6 7 6 6 10 10 8 7 7 5 7 9 10 10 12 11 13 15 17 18 12 8 5 5 6 7 10 11 9 8 8 9 8 7 4 2 3 4 5 5 4 4 5 6 5 4 4 4 2 1 2 2 2 1 2 2 3 5 5 4 4 6 7 6 6 4
Wind_Speed
2 1 1 2 2 2 1 4 2 2 2 4 3 1 2 0 1 3 3 5 2 1 1 2 0 1 1 2 8 11 8 5 2 8 4 2 4 6 10 12 11 10 11 9 8 9 10 13 15 14 13 14 14 14 14 14 15 16 16 18 18 18 18 18 18 18 17 18 19 19 19 19 19 18 17 17 18 17 17 18 18 17 15 15 15 15 16 17 17 15 14 14 15 14 14 15 16
1 1 1 1 0 1 1 1 3 1 4 2 7 2 3 1 0 2 3 4 2 1 4 5 6 7 12 15 11 3 9 6 3 2 3 5 7 6 7 10 10 12 10 9 8 9 9 11 15 14 14 15 14 15 15 15 14 15 16 17 19 18 18 18 18 18 17 17 17 18 17 17 18 17 16 16 16 16 15 16 18 17 15 14 15 15 15 16 16 17 15 14 15 14 14 15 15
1 1 4 1 3 3 1 3 1 1 3 2 8 7 2 1 4 1 3 5 4 1 0 1 1 4 2 2 9 5 1 1 6 4 3 7 9 4 6 8 10 12 12 9 9 9 9 12 15 16 15 14 14 15 15 15 15 16 16 16 18 18 18 18 18 18 17 17 17 17 17 17 17 16 16 16 15 14 13 14 16 16 15 14 13 14 15 15 15 16 16 14 14 14 14 14 15
1 0 4 2 1 3 2 3 4 7 3 7 5 6 3 3 0 2 5 6 1 1 3 6 7 4 2 12 3 3 5 3 2 4 5 6 1 6 7 9 11 9 9 8 8 8 8 13 16 16 14 13 13 13 15 16 15 15 15 15 17 18 17 17 17 17 17 17 16 16 16 16 16 16 16 15 13 12 11 13 13 13 12 14 15 14 14 15 15 15 15 14 13 14 14 14 13
1 0 2 2 5 0 2 1 4 3 4 5 4 4 3 2 3 1 1 7 3 2 1 1 3 4 5 5 1 2 1 5 6 4 2 4 6 6 8 9 10 11 10 9 8 8 9 18 16 14 14 13 12 12 13 14 15 15 15 15 15 16 17 17 16 17 17 17 15 15 16 16 16 16 15 15 12 11 11 12 12 9 10 15 14 13 13 13 13 13 13 13 13 13 13 13 12
2 1 2 2 1 2 5 1 0 4 5 3 1 5 3 4 3 3 4 5 6 3 3 3 3 0 5 4 3 3 1 2 3 5 3 5 7 8 8 8 9 10 9 9 8 7 9 16 16 14 15 16 14 13 13 13 13 14 14 14 14 14 15 15 15 16 16 16 14 15 15 15 15 16 15 14 12 12 13 12 12 11 12 15 14 12 12 12 12 12 13 13 13 12 13 12 11
1 3 3 3 2 4 5 3 4 6 6 4 3 7 7 6 4 3 1 3 1 4 1 3 6 6 4 2 2 4 3 1 4 4 4 9 9 8 9 10 11 10 9 8 7 8 10 14 14 14 15 16 16 15 14 13 14 14 15 13 13 13 14 14 13 14 15 15 15 15 15 15 15 15 14 13 12 12 13 12 12 12 14 14 14 13 12 11 12 13 14 14 14 14 13 11 10
1 2 1 2 1 1 0 2 4 4 3 3 3 4 8 8 7 2 3 2 2 0 2 5 5 7 1 4 2 4 8 6 10 11 12 9 9 10 10 9 11 11 9 8 7 7 14 13 12 11 13 13 16 16 15 14 14 14 15 14 12 12 13 14 13 13 13 14 15 14 14 14 14 14 13 12 12 11 12 13 13 13 14 14 13 13 12 11 11 13 14 14 14 13 12 11 10
3 4 0 4 1 2 2 3 5 2 5 4 8 6 10 10 8 3 5 3 1 1 4 4 5 6 3 6 3 1 5 6 10 11 11 10 10 10 7 8 13 12 9 8 7 8 8 12 9 9 10 12 12 14 14 15 13 12 14 14 12 11 11 12 13 12 12 12 13 14 13 13 12 12 12 12 11 11 13 14 14 14 14 13 13 12 12 11 11 12 13 13 14 13 12 11 10
2 2 1 2 4 2 2 6 1 3 4 4 4 10 9 5 5 3 6 2 5 5 1 1 4 8 9 8 4 2 3 6 11 11 9 9 8 8 8 8 10 12 10 8 7 7 8 13 11 9 7 10 10 9 10 11 12 12 13 13 12 12 12 12 11 12 12 12 11 13 13 13 12 12 12 12 11 11 12 13 13 13 13 13 12 12 11 10 11 12 12 12 13 13 12 11 11
0 4 2 3 1 2 5 6 3 6 2 4 7 10 12 6 5 6 4 2 5 7 4 9 6 10 5 3 2 3 8 6 10 11 10 9 8 8 7 8 8 10 11 9 8 7 8 9 15 11 14 13 8 3 11 5 9 11 11 11 11 12 12 11 12 12 12 13 13 13 13 13 13 12 11 12 12 11 12 12 12 12 11 11 10 10 10 10 10 12 11 11 11 11 10 10 10
1 0 1 3 3 7 5 3 2 6 6 2 3 4 1 3 2 2 1 5 3 7 6 2 7 6 6 4 3 5 7 7 9 8 8 7 7 7 7 7 8 7 10 9 7 7 8 8 10 14 17 16 11 11 9 8 8 10 11 12 11 12 11 11 11 13 13 13 13 13 12 12 12 12 11 11 11 11 11 11 11 11 10 10 9 9 9 9 10 10 10 10 10 9 9 9 10
3 1 4 4 3 1 1 1 2 2 4 3 2 5 5 4 3 1 1 5 6 6 2 3 14 2 5 2 4 7 7 6 6 8 7 7 8 6 7 8 7 7 8 7 8 8 8 7 10 11 14 18 14 13 14 11 10 11 11 11 11 11 12 12 11 13 13 13 12 12 12 12 12 12 11 10 10 10 11 11 11 10 9 9 9 8 8 8 9 9 8 9 9 8 8 8 9
4 6 5 3 1 1 1 1 0 1 3 3 2 6 5 2 1 1 5 8 3 2 2 9 6 7 6 6 6 7 6 8 8 7 6 7 7 8 8 6 7 7 7 7 8 8 8 7 8 9 13 11 8 10 10 9 9 9 9 9 10 10 11 11 11 11 12 13 12 12 12 12 12 11 11 10 9 8 9 10 10 9 9 8 8 8 7 7 7 7 7 7 7 7 7 7 8
0 2 3 2 1 1 2 2 3 3 2 1 3 5 8 3 2 5 7 5 6 2 5 4 3 0 6 10 5 8 10 10 8 7 7 7 7 7 8 7 6 5 5 4 4 7 8 8 8 8 11 11 9 6 5 8 11 11 11 10 11 10 11 11 11 10 12 11 12 12 12 12 11 12 11 10 8 8 9 9 8 8 8 8 8 7 6 6 6 6 6 6 6 6 6 7 8
3 4 2 1 2 3 2 2 1 2 4 1 3 5 5 3 5 3 4 2 3 2 3 2 6 1 3 8 4 13 13 11 9 9 9 9 7 6 8 7 6 4 3 3 3 2 3 5 5 5 7 9 9 7 7 6 9 11 12 11 12 12 11 11 12 11 12 11 11 10 9 8 9 8 11 8 9 7 7 5 7 8 8 8 7 6 6 5 4 4 4 5 4 5 6 7 8
2 4 0 2 4 3 2 2 3 2 5 4 3 6 4 3 2 3 4 7 9 3 4 5 4 3 4 2 14 17 13 12 10 11 10 8 6 5 4 5 5 4 3 3 2 2 2 4 5 6 7 8 8 8 8 7 8 12 10 12 11 12 11 12 12 12 10 9 9 9 7 5 4 4 5 4 8 4 5 6 8 8 8 8 7 6 5 4 3 3 3 3 5 5 6 8 8
1 1 4 2 4 3 4 4 6 1 1 4 6 3 3 6 3 1 4 7 5 6 8 5 9 7 8 10 15 16 13 14 11 13 10 8 7 7 6 5 5 8 5 4 2 1 2 2 5 6 5 6 5 5 4 5 6 9 7 7 6 9 9 8 7 5 7 4 9 7 4 4 3 4 4 5 3 4 5 6 7 7 8 8 6 5 5 4 3 2 3 4 5 7 8 4 4
2 1 2 8 4 3 5 3 6 1 5 4 5 3 1 3 0 2 3 0 1 6 6 6 10 11 12 13 14 15 14 14 12 12 12 12 10 12 10 7 6 6 7 5 4 3 2 2 2 5 5 6 6 5 4 5 5 6 7 6 6 8 7 6 6 6 5 5 5 5 4 4 3 3 3 4 3 5 4 6 6 7 7 7 6 5 5 3 4 4 3 5 7 8 4 3 3
2 4 4 4 6 2 4 2 4 4 3 7 7 3 4 5 1 0 3 5 3 7 6 6 9 13 15 14 14 14 15 14 12 12 13 11 9 11 11 10 8 7 7 5 6 4 4 3 3 3 5 6 5 4 4 5 5 5 6 5 5 5 5 5 5 5 5 5 5 4 4 4 4 3 6 8 6 3 3 3 4 5 6 6 5 3 4 3 4 4 6 6 4 3 3 3 3
1 1 4 2 3 1 4 8 9 6 0 3 4 4 7 6 1 1 5 5 2 3 7 10 14 14 15 17 15 14 14 14 12 11 11 10 6 5 6 7 7 7 7 5 5 6 5 4 4 4 4 5 6 5 5 4 4 5 5 5 5 5 5 5 5 5 5 5 4 4 4 3 3 3 3 4 3 4 4 2 2 2 2 2 4 3 3 3 3 3 4 4 3 3 3 3 4
3 6 3 3 1 1 6 7 6 2 2 1 3 4 6 2 0 2 3 0 1 4 5 6 16 17 19 18 15 14 14 14 13 12 12 12 12 10 6 5 4 4 5 6 5 7 5 5 5 4 5 6 5 4 4 5 6 5 5 5 5 4 5 5 4 4 4 4 4 4 4 4 4 4 3 3 4 3 4 2 1 2 2 2 2 3 3 2 3 3 3 3 3 2 2 2 2
3 3 3 4 4 3 2 2 5 4 1 3 2 2 2 2 4 1 3 2 3 2 4 11 16 17 13 17 14 14 16 18 15 15 14 11 10 8 9 7 9 8 6 5 3 4 5 5 5 5 5 5 6 6 5 5 4 4 4 4 5 4 4 5 5 4 4 4 4 4 5 4 4 4 3 2 3 3 3 2 3 4 2 2 2 1 2 2 2 2 2 2 2 3 3 2 3
2 4 1 5 3 6 6 5 5 2 4 6 3 2 3 4 6 0 1 3 4 4 6 14 16 15 13 14 15 17 15 14 14 13 13 13 12 13 10 9 6 5 5 5 4 4 5 6 5 5 5 6 5 6 6 5 4 4 5 5 4 5 5 5 4 4 4 4 4 4 4 4 4 4 3 3 2 4 3 1 3 2 2 2 3 4 1 2 2 2 2 2 2 2 2 3 3
3 3 3 4 1 5 6 5 5 4 7 6 3 4 10 6 3 1 1 1 2 6 9 13 16 15 13 13 15 14 13 12 12 11 8 8 7 4 3 3 5 6 7 6 5 4 6 5 4 2 5 6 5 5 6 6 5 4 4 4 4 6 4 4 4 4 4 3 3 4 4 4 3 4 4 3 3 3 2 3 4 3 1 2 2 3 4 2 1 2 2 2 2 2 2 3 3
5 8 1 2 4 6 5 5 8 5 4 3 2 8 10 6 4 0 3 3 6 8 12 15 14 12 12 14 14 15 14 14 12 12 12 8 6 7 7 7 7 8 6 7 7 5 6 5 5 4 4 5 4 5 5 5 5 4 4 4 4 4 3 3 3 3 3 4 3 4 2 4 5 4 3 3 3 3 2 3 4 3 3 3 3 1 3 2 1 1 2 2 3 2 3 2 3
3 4 4 5 7 4 4 2 4 0 4 4 5 5 5 3 7 3 1 7 10 12 14 13 12 12 11 12 11 11 13 14 14 9 8 7 6 8 7 7 7 6 7 8 7 6 5 6 5 3 2 4 4 5 4 5 5 4 4 3 3 4 4 3 3 3 3 3 4 4 3 3 2 3 2 3 3 3 3 3 3 3 3 4 4 4 3 3 1 1 2 2 2 1 1 2 2
3 3 1 5 5 4 6 2 10 0 4 7 6 6 0 2 1 4 6 9 10 14 13 14 9 9 9 11 10 8 8 7 7 8 11 9 4 2 1 4 1 6 7 6 6 6 6 7 7 4 3 4 5 5 5 5 4 4 5 4 4 4 4 4 3 3 4 3 4 4 3 3 4 3 3 2 3 3 3 3 1 2 3 3 3 4 3 2 2 2 1 2 2 1 1 2 2
1 1 3 4 7 4 1 3 2 4 3 6 6 0 2 1 4 1 10 11 9 11 14 13 9 9 9 9 7 7 7 6 5 4 2 8 11 10 10 10 10 7 4 7 7 8 8 7 7 5 5 4 5 5 5 4 4 5 5 4 4 3 3 3 3 3 4 3 4 4 3 4 3 3 2 4 4 3 2 2 2 2 2 3 3 4 3 2 1 1 1 2 2 2 2 2 1
1 2 0 4 6 4 3 0 0 4 3 6 6 4 6 6 6 3 13 13 10 12 12 13 9 7 8 8 7 5 4 4 3 8 9 8 5 4 7 9 9 7 4 4 6 6 5 5 4 4 5 6 6 5 5 5 4 4 4 4 4 4 4 4 3 4 4 4 4 3 3 4 2 2 3 4 3 3 2 2 2 1 1 3 3 3 2 2 1 1 1 2 2 2 2 1 1
1 2 3 0 2 2 3 0 1 1 3 9 2 5 7 6 4 5 12 14 16 13 12 13 12 10 7 7 6 6 4 4 7 10 9 9 7 5 6 7 9 9 6 3 5 7 5 5 6 5 6 6 6 5 5 5 5 6 4 4 4 3 4 4 3 3 4 4 4 4 2 3 3 3 1 3 2 3 2 1 1 1 1 2 3 2 2 1 1 1 1 1 1 1 2 2 2
2 1 2 4 1 4 10 4 5 4 2 2 4 2 7 5 6 10 12 9 8 12 12 12 11 12 10 7 7 6 5 5 7 7 7 5 5 8 4 8 11 8 5 2 8 4 5 4 6 6 6 6 6 6 5 5 5 6 5 5 4 3 3 3 2 2 2 3 4 3 2 3 3 3 2 3 2 2 3 3 2 2 3 2 2 2 2 1 1 1 1 1 2 1 2 3 2
5 1 2 0 1 4 6 0 3 6 1 0 6 4 1 2 4 6 11 10 7 9 11 11 12 12 9 8 6 6 7 6 6 7 7 6 5 6 7 8 10 14 12 8 8 7 6 6 7 7 8 7 6 6 6 5 6 6 6 5 5 4 3 2 2 2 2 3 3 4 3 3 4 4 3 3 2 2 3 3 2 2 2 2 2 2 1 2 2 2 1 1 1 2 2 3 2
2 2 0 2 0 1 3 8 2 1 2 2 2 2 2 4 5 4 9 10 8 8 9 10 8 7 7 7 7 7 8 7 7 8 8 7 6 7 5 10 11 5 10 9 8 4 4 6 6 7 7 6 6 7 6 6 6 6 5 5 5 4 3 3 3 3 3 2 3 4 4 3 2 3 4 4 3 2 2 2 1 2 2 2 2 2 1 2 2 2 2 1 1 2 1 3 3
1 0 2 2 1 1 4 2 2 4 2 5 0 5 2 3 2 6 10 11 8 9 8 9 9 10 8 7 7 8 8 8 7 7 7 2 6 5 5 6 7 8 7 8 7 4 7 5 5 5 6 6 7 7 7 7 7 6 5 5 4 4 3 3 2 3 3 2 3 3 4 4 3 3 4 4 4 4 4 3 2 2 2 2 1 1 1 1 2 2 2 1 2 2 2 1 2
1 3 2 2 1 2 3 5 3 0 1 1 4 7 5 2 1 4 6 8 9 7 7 7 7 7 7 6 5 7 6 6 5 7 8 9 5 4 4 6 8 8 7 7 10 8 5 3 4 4 4 5 6 6 6 6 5 5 6 5 5 4 3 3 2 2 1 1 0 0 1 1 2 3 3 2 1 2 2 3 3 2 2 2 1 0 1 1 1 2 3 1 2 3 3 2 3
3 2 2 3 2 5 5 4 6 1 2 1 1 1 4 4 6 6 7 8 8 8 8 7 8 8 8 6 6 7 6 6 7 8 8 9 7 4 4 5 7 9 10 11 12 8 6 7 7 7 5 5 7 7 5 6 5 4 4 4 5 2 3 2 2 2 3 2 2 1 1 2 3 3 3 3 2 2 3 3 3 3 2 1 0 1 1 1 1 2 3 2 1 2 1 1 3
1 1 1 5 2 3 4 2 3 6 1 2 1 2 1 2 2 3 4 8 10 11 8 9 10 11 9 8 7 8 6 4 8 8 8 8 7 6 5 5 5 8 7 5 9 9 8 6 7 7 6 5 6 7 6 5 3 5 5 5 5 4 4 4 3 2 2 3 3 2 2 3 4 4 4 3 3 4 4 3 2 2 2 1 1 1 1 1 0 2 3 2 2 1 3 0 2
1 2 2 1 4 6 8 4 4 3 2 1 1 4 1 0 1 1 2 3 1 2 6 5 9 9 8 8 9 8 6 7 8 8 10 9 9 6 5 5 4 4 4 5 3 5 7 7 4 5 5 5 5 6 6 5 3 4 5 4 6 4 2 2 4 2 3 5 4 4 3 3 4 4 4 4 4 4 5 4 3 3 3 2 2 1 1 1 1 1 3 3 2 0 1 1 3
4 2 1 3 2 1 3 4 4 8 3 1 1 6 1 4 1 1 2 1 1 3 4 5 7 6 5 8 9 8 8 9 11 12 11 11 9 8 6 6 6 3 4 4 5 4 3 4 4 5 5 4 5 5 5 5 7 7 7 7 4 4 4 3 5 4 4 5 5 4 4 4 4 5 3 4 4 4 5 5 4 3 3 2 2 1 1 1 1 1 1 3 3 1 1 1 3
1 2 1 1 1 2 4 2 3 2 2 4 3 7 3 5 2 2 0 0 4 4 5 4 4 1 1 1 2 5 9 8 10 11 10 10 10 10 10 7 4 4 4 5 5 5 4 4 3 4 5 5 6 6 7 8 9 8 7 6 6 7 5 5 5 5 4 3 3 5 4 3 4 5 4 3 4 5 4 4 4 4 4 3 3 2 2 1 1 1 0 2 2 2 2 2 3
1 5 8 7 1 2 2 3 4 5 1 5 2 3 2 7 5 4 5 0 3 2 7 6 7 5 4 6 6 4 4 6 8 9 8 8 8 7 6 4 4 4 4 4 4 5 5 5 3 3 3 4 7 6 7 7 7 9 8 7 6 5 5 4 4 4 3 4 4 1 4 4 3 5 4 4 4 4 5 5 5 5 4 3 3 3 2 2 1 1 2 2 2 1 1 2 1
2 4 7 5 4 3 1 1 3 2 2 3 1 4 1 6 2 2 4 1 1 0 5 6 5 5 5 5 6 7 8 7 6 6 7 8 8 6 6 6 4 4 4 4 5 5 6 7 6 5 6 6 6 6 5 6 6 6 8 8 7 7 7 1 0 1 3 3 3 4 3 4 3 5 4 4 5 4 5 5 5 5 5 4 3 5 4 3 2 1 1 2 2 3 3 2 2
2 2 6 5 5 2 2 4 3 2 1 2 6 4 5 1 2 2 4 0 1 1 4 5 5 6 6 5 7 8 8 8 9 9 9 9 9 10 10 7 5 4 4 5 7 6 8 9 8 7 6 7 6 6 5 5 8 5 6 5 6 6 6 5 4 4 2 2 5 4 5 5 5 4 5 5 4 4 5 5 5 5 6 4 4 5 5 4 4 3 3 2 3 3 4 5 3
2 4 7 6 4 2 4 4 4 0 0 4 5 4 2 1 4 4 4 2 0 4 4 6 5 5 7 7 8 9 10 9 10 11 12 12 12 11 7 6 3 4 5 7 6 4 6 8 8 6 6 6 6 6 6 4 6 7 7 6 6 3 4 5 4 3 4 2 6 3 5 4 5 5 4 4 4 4 4 5 5 6 6 5 5 5 5 5 5 5 4 4 4 4 2 1 2
1 7 6 6 6 5 3 3 4 1 3 3 1 3 1 2 4 4 3 2 3 3 5 6 8 7 7 8 8 9 7 8 9 11 10 10 9 6 4 5 8 8 5 3 4 4 2 2 4 4 5 4 5 5 5 5 5 7 7 6 8 5 5 4 4 4 3 3 5 3 4 5 5 5 4 4 4 4 4 4 5 5 5 5 4 6 5 6 5 5 4 5 4 6 4 4 4
6 4 7 6 8 4 3 6 3 4 0 3 2 1 2 0 1 2 1 0 2 7 6 2 5 5 8 7 9 9 9 9 10 10 9 8 4 3 5 6 4 2 2 3 4 5 4 2 2 4 4 4 5 6 6 6 5 5 7 7 8 8 5 6 6 3 3 3 5 3 4 4 4 5 4 4 4 3 4 4 5 5 4 4 5 5 5 5 4 5 5 5 6 6 5 6 6
4 2 3 5 3 6 5 5 5 2 2 5 1 1 2 4 1 5 6 6 5 6 10 7 2 6 7 8 8 9 8 8 8 8 7 4 3 3 3 3 2 1 3 3 1 5 5 4 4 4 3 4 5 5 5 5 5 4 5 7 8 9 9 7 8 7 4 5 4 4 2 5 4 5 4 5 4 3 4 5 5 5 5 5 5 4 5 5 4 4 5 5 5 5 4 6 5
6 6 7 6 1 3 1 4 1 2 4 0 2 1 1 2 2 2 5 5 6 5 7 9 6 8 7 6 7 7 7 6 7 7 5 3 3 3 3 4 8 11 3 8 1 6 8 7 3 3 4 2 3 3 4 4 5 5 7 7 7 7 8 8 7 7 5 5 5 5 4 6 4 5 4 5 3 2 3 5 4 5 4 4 4 4 4 4 4 5 5 6 5 5 4 5 6
5 5 5 5 2 2 1 2 0 4 5 4 2 2 1 3 4 1 3 5 5 6 5 5 7 5 4 3 3 5 5 3 1 5 8 10 11 9 7 8 7 8 8 5 2 7 7 4 2 2 4 6 3 3 3 4 4 6 6 6 7 7 7 7 6 7 5 4 5 5 4 5 6 5 4 4 2 2 3 3 4 4 4 4 3 4 4 3 4 5 5 6 5 4 5 7 6
6 2 9 7 7 5 2 3 4 6 6 2 3 2 3 3 2 3 4 4 5 3 1 1 2 3 5 6 8 9 8 8 9 11 10 9 11 13 11 9 4 9 7 5 2 6 6 4 3 10 7 2 2 4 6 7 6 4 3 3 5 6 7 6 6 6 6 5 3 5 3 3 5 3 4 2 2 4 3 4 3 5 4 4 4 4 4 4 4 5 5 5 4 4 6 6 5
0 2 5 6 5 7 1 4 3 2 1 1 1 2 1 1 1 4 2 3 4 3 1 7 8 7 9 10 9 8 7 6 6 9 10 11 10 6 8 10 10 8 11 2 1 2 5 7 13 10 2 3 6 5 2 2 3 4 5 6 6 5 4 5 5 4 4 5 5 5 5 3 3 4 2 2 2 3 4 4 4 4 3 3 2 4 3 4 4 5 5 5 5 2 6 6 5
3 3 3 3 2 10 6 1 2 3 4 3 0 3 3 5 2 2 4 4 4 3 3 5 8 9 10 9 8 9 7 5 3 4 6 11 11 9 6 5 6 3 5 6 4 4 3 9 12 10 6 8 8 4 9 9 5 3 3 3 4 5 6 6 6 5 5 4 5 4 5 4 2 3 3 2 3 3 3 4 4 4 3 3 3 2 3 3 3 4 5 5 5 4 6 6 5
6 2 5 2 3 6 6 3 2 3 3 3 1 1 2 2 2 2 1 2 1 3 3 3 4 5 10 8 7 7 7 7 7 4 5 3 5 10 9 8 9 10 9 6 5 2 4 6 10 12 13 14 10 9 5 5 6 5 4 4 4 4 5 6 6 6 5 6 4 4 4 4 3 3 3 2 3 3 3 3 4 3 3 2 2 2 2 2 2 4 4 4 4 5 6 4 4
3 3 4 2 1 1 2 6 0 1 1 2 1 0 3 4 2 0 3 3 1 1 2 3 4 4 4 4 5 4 6 10 6 6 5 4 6 6 8 11 7 7 7 4 3 5 7 6 6 10 11 7 7 4 3 3 4 5 6 6 6 5 4 4 4 5 5 6 6 5 5 4 4 3 4 3 3 3 3 3 3 2 2 3 2 2 2 2 2 3 2 4 3 4 5 5 3
4 4 3 1 3 1 3 3 4 6 2 2 3 2 3 6 3 3 3 4 3 1 2 2 3 3 3 3 4 4 3 4 8 6 2 3 4 4 5 7 5 4 5 6 5 6 11 11 11 12 10 7 5 4 4 5 3 5 6 6 5 5 4 4 4 6 6 5 5 6 4 4 5 4 3 3 3 3 3 3 2 2 2 1 2 2 3 4 3 3 3 3 2 3 4 4 2
2 3 2 2 3 1 4 2 1 3 5 4 3 1 5 5 6 4 4 6 7 5 4 2 3 4 4 6 7 6 5 4 4 4 5 6 6 5 4 2 2 3 6 7 6 7 10 12 12 10 11 11 9 5 3 3 5 5 6 6 6 5 4 4 4 2 1 1 2 3 3 2 3 2 2 1 1 3 2 1 1 0 1 1 1 1 1 3 3 3 2 3 4 4 5 3 3
4 5 3 6 5 3 3 2 1 2 4 3 4 5 6 7 2 4 4 4 6 5 4 4 4 4 4 4 4 4 5 3 4 4 4 6 7 6 4 3 2 5 6 7 7 7 8 9 10 11 12 8 6 3 4 3 3 3 4 4 3 3 4 4 5 3 1 2 2 3 3 3 3 3 4 3 3 2 2 1 1 1 1 1 1 1 2 2 4 3 3 3 4 5 4 4 3
Wind_Direction
275 354 229 141 94 138 67 359 150 306 83 254 310 184 254 130 247 329 281 325 330 264 211 16 305 293 206 184 118 94 38 111 195 138 214 198 103 117 131 130 129 129 126 131 132 130 133 130 128 127 127 123 122 125 125 123 122 123 121 120 121 121 123 124 124 124 126 127 129 130 133 134 136 136 134 132 131 127 125 123 120 117 117 121 124 123 125 125 121 116 114 115 115 116 115 115 116
328 5 91 200 121 64 202 126 98 351 37 6 250 130 253 301 66 213 292 303 235 334 33 74 61 63 65 93 122 113 42 54 190 128 108 119 106 107 132 124 128 127 126 125 123 126 126 129 128 126 127 128 130 130 127 126 125 123 123 122 124 126 127 126 126 127 129 131 131 133 135 135 133 131 128 126 123 122 120 120 119 119 119 121 119 124 124 120 120 115 112 112 114 114 117 117 115
318 152 76 34 29 80 101 36 245 46 136 235 269 208 319 321 205 196 307 314 267 86 352 339 142 49 33 51 39 33 217 143 114 120 104 139 110 146 131 123 121 126 124 123 127 127 130 135 132 129 132 137 136 132 130 128 127 127 126 124 124 127 126 126 126 127 130 132 133 133 132 131 130 127 123 121 119 122 125 118 116 119 121 121 114 112 114 112 110 110 111 110 112 114 114 117 115
91 51 165 81 93 19 73 29 84 130 155 216 303 270 215 190 299 183 353 333 209 305 18 21 38 309 85 64 103 57 81 126 126 119 124 157 105 134 129 121 119 116 115 120 123 124 129 135 130 132 135 136 134 131 130 128 128 128 127 124 124 126 126 127 127 127 129 130 131 131 132 131 128 125 123 120 118 117 116 117 112 120 126 120 113 110 108 107 108 111 108 111 114 116 116 119 116
190 335 106 109 113 353 107 177 145 102 214 198 196 275 252 221 242 266 340 304 262 209 80 94 67 357 61 77 19 77 33 90 134 33 66 58 102 118 118 116 118 117 113 112 117 127 136 136 134 136 135 132 130 130 129 129 128 125 124 122 123 124 126 127 127 126 127 128 130 131 132 131 127 125 123 121 116 112 112 107 110 101 92 116 117 114 114 115 110 102 105 111 116 116 115 108 103
65 46 358 103 277 184 64 72 181 203 225 119 295 264 222 212 244 215 250 263 272 308 134 85 146 303 28 15 10 67 115 129 111 68 90 114 117 124 117 118 115 111 112 114 123 126 135 137 137 139 139 138 135 135 132 130 125 121 120 121 124 124 125 126 125 125 125 127 127 129 130 126 125 124 123 119 114 110 110 105 108 102 103 119 118 114 111 107 104 100 103 110 115 109 99 99 96
220 54 355 35 26 56 166 150 214 213 267 166 252 276 290 288 230 295 263 338 324 92 32 97 105 90 84 320 46 25 333 252 133 95 96 124 112 108 108 113 113 109 109 109 116 123 133 132 135 142 146 141 139 138 135 130 127 123 122 122 125 126 124 123 122 124 125 126 128 128 129 125 124 122 122 118 112 108 104 103 106 109 117 120 118 113 110 106 100 99 100 103 101 95 92 93 94
52 128 274 104 216 53 115 201 245 151 272 187 241 262 283 283 293 313 296 74 295 93 43 116 98 102 219 246 145 5 31 47 95 99 118 113 108 108 111 109 107 111 106 107 114 122 128 124 135 146 142 140 139 136 133 130 129 128 127 128 129 130 127 126 126 124 125 127 129 129 129 125 123 121 117 114 111 108 103 107 110 114 119 120 117 116 113 109 103 103 103 100 98 100 101 96 90
347 86 300 81 97 43 50 223 247 223 284 281 266 242 262 266 283 275 276 190 252 88 138 119 132 90 121 82 66 73 54 77 91 103 111 113 111 110 110 113 120 120 113 109 109 113 119 130 134 134 140 137 132 133 133 131 131 131 130 132 133 132 129 128 127 127 128 130 132 131 127 123 119 115 115 116 115 112 109 111 112 117 120 120 118 117 114 112 108 105 104 105 106 103 98 91 85
36 98 230 149 126 202 8 290 147 234 214 239 265 279 278 286 287 218 251 141 194 122 28 108 127 121 132 105 108 49 114 122 108 106 107 108 109 111 112 118 114 113 111 111 115 116 121 129 128 132 140 123 117 114 114 124 131 132 134 132 137 136 133 129 127 128 128 128 127 125 121 121 121 119 120 121 122 117 116 114 113 117 118 121 120 117 115 115 112 109 107 108 104 100 94 87 81
217 13 131 82 51 150 215 261 265 306 259 284 279 255 257 269 263 272 201 129 185 134 144 114 84 119 104 87 58 81 125 123 116 128 126 120 118 116 110 107 107 117 120 123 123 122 118 116 112 104 85 77 68 72 106 130 124 119 125 130 135 135 133 132 132 128 123 126 123 120 120 122 123 122 122 123 123 124 124 118 116 118 122 123 122 120 119 119 115 111 107 104 99 96 92 86 80
43 98 23 107 184 168 232 202 282 277 292 311 276 289 250 265 268 282 307 138 166 130 147 179 157 135 84 129 133 133 124 124 118 118 119 119 111 109 102 103 111 120 121 125 127 123 123 120 121 121 122 129 140 135 138 158 133 130 138 140 139 135 129 130 127 127 124 120 118 119 120 121 121 120 118 118 119 121 123 122 119 120 123 122 119 120 119 118 115 111 111 107 103 97 92 85 79
127 107 89 100 223 145 212 42 259 293 330 295 242 294 316 330 43 308 91 95 115 119 117 242 142 126 118 135 125 126 133 134 124 123 126 122 115 108 106 112 122 123 123 135 139 139 125 138 135 139 142 144 159 158 146 160 144 144 137 133 135 130 130 124 128 126 120 119 120 121 120 120 118 117 115 116 118 123 124 119 119 120 122 121 119 119 118 116 113 114 113 107 100 94 89 84 79
117 179 132 207 73 158 135 215 314 21 303 249 275 283 329 343 29 66 111 85 28 104 289 136 116 111 85 113 139 153 153 146 132 128 123 115 115 117 121 126 126 125 132 145 145 137 143 147 139 144 142 146 147 142 145 148 136 118 124 130 130 130 128 129 130 120 122 124 127 127 124 121 118 115 114 115 117 110 112 119 119 123 124 123 122 120 118 112 109 107 105 103 98 92 85 78 74
160 148 83 119 101 50 254 121 219 163 256 245 273 353 346 319 346 72 86 98 51 91 105 45 129 43 186 167 176 173 156 147 131 126 116 109 103 108 120 118 118 120 125 134 137 147 149 148 147 149 140 135 136 130 135 152 138 137 140 136 139 131 125 128 126 122 121 130 128 130 128 125 119 117 117 116 108 106 117 117 120 126 128 128 123 123 121 115 109 108 104 98 93 90 81 72 68
146 82 85 135 244 163 264 189 174 98 261 207 268 332 17 322 351 44 325 182 141 22 25 165 1 169 199 176 158 139 141 136 135 132 126 117 105 98 121 125 120 118 116 133 143 125 131 139 135 136 124 130 130 131 134 144 151 151 139 140 142 130 128 129 128 124 126 128 128 122 117 117 117 120 123 122 119 109 100 101 121 134 135 130 130 125 122 118 112 109 104 103 93 80 71 67 63
74 80 79 42 250 147 253 169 142 241 255 279 292 26 27 329 317 86 47 41 95 1 56 33 304 286 170 138 123 128 137 134 137 134 129 130 126 118 110 121 130 129 125 126 118 128 141 140 138 128 120 129 136 141 143 148 157 152 138 135 141 128 128 127 126 123 123 124 120 118 103 96 105 113 114 122 129 110 127 126 139 143 143 140 137 139 126 122 113 89 76 69 55 52 57 57 50
67 122 113 244 200 126 207 181 188 161 229 295 339 2 30 334 11 170 66 46 76 64 53 38 57 60 94 108 115 129 136 138 149 141 146 140 147 143 145 147 144 157 147 134 102 112 128 146 140 125 123 123 121 127 131 136 153 144 130 133 140 127 132 125 116 114 112 94 114 107 101 107 105 110 126 125 110 135 139 145 146 149 150 148 147 140 135 123 110 90 42 35 40 45 45 49 41
112 106 111 227 167 237 165 203 221 141 264 272 293 329 13 271 92 219 92 228 50 46 37 79 85 90 96 115 125 133 142 144 155 151 157 160 168 163 160 153 156 152 156 147 134 140 102 132 117 125 116 119 124 126 128 134 133 126 123 126 125 128 125 95 87 93 84 96 92 94 93 99 113 108 107 123 135 140 140 148 156 154 155 156 150 137 133 126 112 86 58 34 40 41 44 42 43
225 120 234 249 210 229 225 234 261 202 287 311 318 316 8 276 211 227 155 171 110 143 138 110 126 129 131 132 136 142 149 152 161 160 164 171 176 171 167 164 161 167 160 153 145 136 127 141 131 123 125 123 127 133 117 114 117 106 103 90 87 90 88 97 99 101 97 101 105 103 109 112 107 130 155 153 148 117 121 104 158 168 166 159 154 126 113 125 97 71 66 56 32 43 39 31 33
272 117 206 231 203 156 251 212 241 266 242 281 276 315 335 310 204 87 149 91 244 245 212 164 164 151 143 144 146 151 153 157 166 170 170 173 178 198 176 161 162 160 158 127 131 147 145 146 135 129 107 126 127 137 122 87 95 98 90 97 98 97 102 99 101 98 104 104 101 105 103 90 82 67 51 59 66 93 84 52 34 34 33 51 95 82 76 57 69 72 54 49 41 33 35 11 13
110 214 204 202 148 256 240 206 220 211 219 197 282 337 272 300 31 84 154 137 230 216 216 180 153 153 149 150 154 155 157 159 168 175 178 178 179 183 172 144 142 142 139 148 151 147 146 139 130 110 107 119 119 134 103 124 114 106 114 118 110 106 115 106 104 106 102 101 107 105 95 87 74 68 54 71 68 89 98 83 28 31 44 50 84 96 76 62 73 62 61 44 28 23 34 355 350
226 306 255 226 212 240 261 149 207 163 256 228 293 229 306 25 315 264 152 169 272 255 247 150 156 159 150 148 148 156 159 167 175 179 180 179 183 195 186 170 161 167 157 149 141 122 121 114 116 115 115 117 127 113 123 93 99 99 97 120 122 114 106 112 111 110 109 113 112 115 111 104 99 96 97 86 93 82 108 106 34 13 28 46 19 32 67 74 60 64 55 47 20 354 331 325 331
156 245 335 297 169 222 255 274 179 207 213 252 226 10 307 304 316 298 56 303 293 314 142 143 149 152 146 150 163 163 166 169 178 182 181 186 185 191 185 171 157 141 139 132 123 108 120 120 113 159 113 112 126 125 99 103 99 122 143 130 118 141 126 122 127 125 124 118 119 113 115 124 133 135 134 132 107 87 94 88 82 341 358 43 18 321 2 26 49 52 57 49 347 331 320 313 10
181 279 250 268 175 235 252 258 290 230 234 253 317 299 262 236 224 82 286 324 27 91 119 135 146 143 150 153 160 162 168 173 178 184 182 189 190 181 185 146 150 152 151 124 115 107 104 103 102 99 103 114 109 118 121 123 132 138 113 123 144 147 125 136 135 129 124 125 113 121 132 131 146 159 162 135 107 108 117 122 146 177 80 41 63 316 349 357 37 57 66 63 67 17 352 343 354
200 220 204 283 287 279 281 310 273 260 256 188 168 241 261 267 122 141 250 88 108 116 123 141 141 141 155 163 165 167 173 178 179 185 190 181 172 171 187 180 164 160 139 113 107 95 90 101 114 112 131 118 115 113 121 127 140 138 137 146 159 129 138 131 128 115 126 126 128 127 139 164 182 165 128 113 132 133 122 103 118 146 135 123 145 169 263 316 134 115 105 81 74 59 35 352 3
173 209 219 238 260 338 304 208 279 120 215 161 186 242 256 337 166 261 154 136 132 128 136 150 149 153 157 164 171 177 176 182 184 180 176 177 173 181 186 179 168 136 119 117 107 98 104 108 110 173 123 122 106 110 126 136 145 136 135 146 114 129 136 134 130 127 123 125 133 136 170 190 105 75 114 157 146 123 111 115 125 133 124 127 176 181 196 222 175 139 154 132 112 93 64 322 359
168 196 279 276 311 259 251 295 272 19 282 187 180 234 41 349 106 217 164 147 145 137 142 154 157 155 159 166 170 175 184 181 176 179 187 174 162 106 25 355 37 77 97 88 98 98 105 118 138 177 149 128 131 136 143 145 142 137 136 132 122 137 150 149 147 133 133 120 118 121 170 73 67 79 119 115 88 102 119 115 135 121 135 131 140 155 182 200 157 146 142 130 129 113 19 353 324
252 155 287 300 355 349 294 211 263 165 250 165 175 332 286 360 198 273 150 142 143 140 147 155 155 161 162 164 167 177 187 179 181 182 95 45 43 58 56 24 16 35 46 106 122 130 136 141 160 170 149 143 139 147 136 136 136 129 126 135 143 145 149 143 141 137 124 126 118 120 101 96 112 124 88 87 91 84 116 125 123 114 132 129 139 156 150 149 134 111 40 36 65 45 38 5 356
55 51 144 331 360 343 300 257 37 142 255 134 143 254 268 262 253 267 150 144 142 140 154 159 158 158 163 171 173 167 166 165 119 58 61 55 58 55 113 102 71 31 19 97 130 139 142 144 149 152 158 150 151 133 129 130 132 120 136 151 135 136 150 146 143 140 138 131 118 103 126 111 125 142 134 112 116 105 81 109 120 121 126 128 130 139 150 169 153 104 44 39 46 46 55 359 106
215 272 64 156 27 285 279 72 33 182 235 162 128 232 279 272 270 198 162 157 151 154 160 165 167 167 168 172 169 168 138 94 93 106 124 150 135 96 73 87 80 60 15 355 152 159 169 153 155 158 168 160 144 131 127 129 130 126 128 118 120 129 134 134 123 127 139 136 120 142 168 140 158 180 167 114 108 110 107 102 123 117 141 124 118 125 142 153 83 78 40 62 50 60 58 40 83
33 72 288 320 113 273 299 280 184 197 330 58 130 262 233 260 246 175 166 160 153 148 162 168 170 175 174 164 162 154 124 107 108 116 121 117 123 113 181 148 128 117 119 222 284 190 176 170 161 162 165 161 140 137 130 125 116 108 123 110 108 108 112 100 114 117 115 108 117 121 152 160 156 184 152 117 129 139 129 152 148 146 130 114 114 127 133 162 58 68 50 63 107 62 101 57 42
356 77 252 267 184 259 346 348 206 220 272 98 171 202 337 287 277 195 166 161 157 151 162 168 176 177 170 162 148 145 132 122 125 130 135 151 154 162 174 164 159 164 165 179 225 214 192 175 168 166 168 157 140 131 123 112 107 111 103 110 111 111 110 116 121 114 117 130 138 131 166 197 156 163 149 128 136 135 122 110 122 133 123 111 107 120 107 96 115 102 55 40 116 180 120 102 60
315 18 142 210 209 337 327 304 353 23 173 250 188 176 225 275 297 179 164 162 160 166 166 168 171 163 156 151 150 155 164 162 154 150 150 171 181 179 180 172 171 153 152 171 195 221 197 177 173 178 169 154 141 135 125 115 110 106 103 105 113 114 123 132 128 123 122 146 149 149 162 196 169 140 148 148 130 124 102 105 114 124 123 111 95 86 78 84 99 128 112 65 80 127 121 115 115
214 347 12 330 322 242 253 329 266 16 329 202 166 184 237 297 289 183 170 172 158 167 170 164 167 163 157 147 158 164 173 179 165 147 128 189 202 191 181 160 153 146 172 172 140 164 240 196 173 176 158 145 132 127 119 112 110 100 100 107 99 94 80 70 89 98 119 127 180 168 159 174 154 134 136 148 145 154 133 141 145 131 124 109 83 53 53 63 95 97 108 66 67 70 103 66 145
153 171 192 188 286 302 281 250 278 166 106 267 183 189 218 272 194 166 155 158 151 167 165 167 159 148 149 162 156 170 170 179 130 139 132 208 197 212 194 160 161 165 174 168 164 179 195 174 136 137 160 147 132 126 121 115 104 111 116 107 74 58 58 80 45 74 60 73 274 210 145 128 104 108 98 94 34 81 102 115 126 113 86 78 75 28 152 131 128 119 102 66 59 60 46 70 70
87 102 129 223 208 286 280 281 253 127 82 62 251 237 166 208 188 170 151 130 137 154 171 159 159 153 167 164 168 174 174 171 145 140 160 204 214 226 230 176 170 175 183 193 158 163 173 166 152 169 180 162 148 143 137 135 126 114 85 88 109 110 119 95 69 55 76 63 59 79 124 111 103 107 106 74 83 102 72 88 93 77 69 69 219 210 53 78 107 148 131 117 105 72 55 48 66
171 142 181 278 173 261 245 282 340 330 149 341 32 96 5 247 252 172 136 145 174 168 173 170 164 169 177 166 162 172 168 113 138 145 159 218 227 216 211 196 188 184 201 198 157 156 163 170 180 167 164 179 169 149 147 138 159 155 142 149 132 125 120 118 107 76 92 70 57 54 77 105 118 120 124 133 132 123 136 126 118 125 130 169 218 227 209 258 87 132 126 119 44 101 219 258 136
52 187 181 338 281 238 288 284 326 320 89 292 31 108 61 8 255 244 162 162 116 183 188 186 165 169 181 175 174 170 158 161 162 164 175 201 215 208 202 208 219 207 164 163 142 147 161 166 175 168 165 179 159 138 142 149 120 111 112 148 136 109 81 116 111 96 87 83 59 49 54 77 96 90 126 144 142 148 144 129 138 151 166 184 207 233 46 43 33 78 118 126 108 59 354 189 101
154 93 69 228 237 50 324 287 356 356 60 30 102 89 309 324 323 278 268 258 143 122 132 163 192 216 205 188 185 179 171 170 179 178 188 198 203 196 196 209 210 166 158 146 156 158 158 146 160 161 161 174 140 141 127 101 98 92 86 108 89 108 130 106 87 67 64 69 57 49 51 64 91 97 117 137 133 139 143 144 153 156 152 164 160 147 123 91 45 72 73 92 137 154 134 31 59
320 153 161 288 245 238 151 308 335 300 12 89 61 44 343 17 65 175 61 25 99 125 122 158 200 189 60 79 176 180 187 191 187 188 194 201 202 199 194 203 172 180 170 164 159 161 160 144 155 166 158 165 131 128 120 116 103 85 88 76 86 81 64 66 72 47 50 91 80 47 32 45 83 97 101 110 119 119 125 139 141 139 137 124 134 134 142 103 83 55 69 117 147 149 172 59 31
310 232 195 198 201 151 288 340 44 21 355 17 86 47 354 312 297 211 283 106 102 194 157 181 177 174 167 189 200 185 181 190 202 199 203 206 209 203 202 188 188 181 172 167 158 155 143 129 142 164 165 152 120 127 132 127 125 127 120 119 109 101 106 102 121 137 106 101 108 72 47 45 73 92 86 97 98 101 100 109 115 116 111 95 107 112 108 102 109 135 140 135 120 113 105 97 4
94 269 187 192 167 131 129 338 65 5 108 337 16 125 241 326 317 345 344 346 152 335 203 190 176 182 180 181 191 196 190 188 204 205 198 203 214 205 206 198 191 182 167 157 149 146 140 139 157 175 170 137 124 133 133 118 113 128 139 144 146 147 137 168 68 38 115 100 87 77 67 49 50 94 85 84 89 94 102 96 98 92 82 75 86 91 80 84 109 160 153 147 151 144 139 147 136
219 232 140 123 116 151 170 99 109 190 236 281 34 89 133 213 291 291 322 47 261 274 250 228 204 186 189 184 190 194 197 193 192 199 203 208 206 200 200 198 192 159 149 160 163 162 158 156 162 171 163 138 133 130 121 128 130 133 125 128 136 140 143 143 132 121 83 115 87 67 72 50 45 56 86 76 81 94 98 89 90 91 85 75 77 74 78 61 71 57 73 85 112 141 159 164 163
219 186 150 154 155 177 112 95 104 58 76 270 336 352 82 266 271 321 8 116 325 269 264 253 242 208 189 187 193 197 198 197 192 196 202 201 204 203 188 177 157 144 159 168 174 175 165 157 158 158 140 128 120 119 122 130 138 143 135 127 101 63 92 107 111 85 99 84 91 57 73 68 60 51 56 79 71 75 79 92 86 84 87 79 80 74 63 60 64 71 51 57 72 74 93 126 135
243 138 86 82 73 62 80 91 81 357 70 266 281 6 154 279 283 330 331 69 317 253 250 243 220 219 202 191 195 196 198 198 201 207 205 204 205 197 163 147 173 186 171 98 59 82 87 86 133 133 106 94 111 113 126 134 141 131 122 126 124 114 103 82 86 101 93 93 99 80 84 76 75 71 54 55 75 74 89 89 86 90 95 94 81 92 88 75 73 74 71 82 79 86 55 82 103
127 101 73 36 38 27 19 59 81 60 27 262 239 326 137 263 252 158 80 261 249 301 294 237 285 220 203 202 188 189 196 198 199 204 206 207 185 154 157 168 155 103 150 118 98 80 81 80 80 86 76 96 122 138 146 151 148 136 132 135 136 135 136 128 118 98 92 93 116 111 97 91 78 82 76 60 61 66 81 78 79 72 62 63 72 73 74 91 88 93 86 78 71 82 77 85 84
121 79 110 66 5 8 31 348 33 93 272 256 271 188 145 171 285 276 249 282 268 243 264 272 273 267 226 195 193 188 191 198 201 198 200 175 135 144 145 145 101 64 14 347 345 80 76 73 69 91 105 142 148 144 142 142 131 120 129 144 147 153 151 153 153 158 165 150 145 133 118 91 75 77 76 82 64 51 73 64 60 56 58 63 65 66 72 79 83 84 77 79 80 73 79 80 83
78 76 56 114 244 43 260 9 237 194 189 248 9 341 48 234 210 214 280 274 290 254 240 264 265 253 236 214 191 184 183 185 193 198 173 127 113 108 148 93 60 55 279 254 305 49 50 56 66 126 178 158 102 110 132 142 143 152 156 160 155 155 157 156 155 152 168 155 154 136 132 121 106 93 91 108 94 63 86 97 85 85 78 68 75 70 62 69 81 81 84 80 80 86 92 95 85
111 144 131 96 87 49 203 285 256 315 281 288 16 329 252 258 304 234 281 294 280 291 282 263 244 220 192 184 185 174 181 183 110 49 51 54 53 42 38 68 104 172 215 245 77 59 53 60 119 200 54 46 52 70 103 141 169 174 173 162 154 153 160 158 155 153 164 160 155 150 155 151 138 140 137 129 137 88 67 85 103 95 93 101 102 100 101 95 87 86 85 87 84 92 95 90 97
205 117 147 178 144 153 209 188 187 209 195 286 292 68 232 125 233 323 292 289 305 310 286 77 56 70 84 69 48 34 33 47 73 78 82 80 81 83 79 77 28 342 330 282 69 111 119 122 72 54 51 30 126 162 170 174 176 176 165 148 150 159 157 155 149 150 148 144 153 138 143 145 131 151 128 124 81 84 91 95 103 111 121 124 123 113 102 95 99 95 92 94 84 94 89 94 86
69 165 78 101 213 145 137 205 147 177 140 25 170 204 180 157 272 291 315 339 7 339 30 79 61 55 65 60 54 48 42 50 69 91 101 102 93 81 104 136 164 218 243 280 62 130 152 113 84 87 75 262 231 195 154 142 175 161 161 163 164 150 139 130 125 121 130 140 155 149 156 167 146 132 133 96 84 105 103 104 96 103 106 107 98 112 116 113 119 108 103 104 102 124 100 90 98
238 107 189 206 146 104 95 56 39 99 60 219 191 327 322 296 16 349 349 25 1 2 22 71 92 85 73 73 71 65 52 34 34 99 125 139 144 134 120 129 125 235 281 243 215 190 105 102 108 126 176 229 233 190 181 191 178 152 138 131 144 150 155 158 152 145 143 143 146 150 147 166 135 120 130 127 122 110 109 110 112 105 104 109 110 101 108 118 117 112 112 105 105 105 98 113 115
94 145 232 166 136 119 124 158 341 58 150 243 14 231 300 60 224 314 9 47 332 8 13 33 47 78 94 96 84 80 76 56 4 1 58 23 87 113 139 182 184 182 209 223 210 138 101 124 133 162 198 207 208 207 173 143 134 135 139 144 163 170 167 156 146 148 150 142 137 134 127 140 172 151 142 141 123 118 108 98 102 93 82 94 116 96 82 64 67 74 92 96 114 110 96 79 90
152 189 179 109 214 169 338 95 119 106 240 277 327 264 245 176 238 326 195 171 195 348 358 38 54 52 77 97 109 106 119 99 55 341 323 91 99 113 158 203 195 176 170 145 175 134 108 118 168 203 212 219 209 185 132 119 151 156 160 165 167 173 162 144 131 141 152 152 159 161 171 169 145 149 143 142 131 124 133 114 114 109 97 99 97 108 102 93 87 106 76 89 50 86 104 104 81
24 79 50 353 105 161 118 194 170 122 208 69 283 54 221 214 215 185 220 221 217 247 39 65 83 93 101 105 98 99 86 121 157 163 231 99 86 104 157 199 218 162 144 142 141 124 144 152 190 219 212 212 244 206 154 138 156 155 163 156 159 154 149 137 138 149 164 174 175 169 161 167 179 162 151 144 151 158 159 155 128 124 122 108 126 123 148 152 128 137 144 118 69 78 93 105 90
69 42 347 20 36 206 103 30 70 161 161 174 172 301 279 263 213 169 213 204 193 187 166 161 132 134 143 147 147 148 150 170 139 162 173 120 111 106 98 114 142 119 127 135 138 142 153 165 182 199 225 225 218 212 136 156 157 166 157 162 156 148 133 113 104 100 161 216 176 162 162 143 115 99 97 75 44 37 37 50 96 114 149 131 131 163 167 162 157 148 134 139 140 134 128 139 132
144 145 152 160 121 118 134 219 54 72 103 198 131 234 268 272 192 216 236 211 190 171 154 143 151 152 150 140 124 139 141 147 159 178 110 87 88 88 91 100 112 121 119 117 120 123 134 159 179 195 213 219 202 175 160 169 183 130 125 110 113 117 127 120 106 92 112 167 174 156 147 118 124 132 125 119 101 90 81 73 51 24 12 324 166 197 200 168 185 175 185 162 170 160 156 165 155